Theta_e
338 336 336 336 338 339 340 341 342 342 341 341 342 343 343 344 345 345 346 345 345 345 345 346 345 345 345 343 342 340 338 336 335 335 335 334 331 328 326 326 325 326 329 332 335 337 336 335 334 334 335 336 336 337 337 336 336 336 335 335 334 335 337 337 337 338 338 339 340 340 340 340 339 340 340 340 339 339 339 338 336 333 329 323 317
340 340 339 338 338 338 339 341 342 343 342 343 343 344 344 344 345 345 344 344 344 344 344 345 346 346 345 344 342 341 339 337 336 336 335 335 334 333 331 331 329 328 327 328 329 329 329 329 329 330 330 331 331 332 334 335 335 335 336 337 337 337 338 339 338 339 339 340 340 339 339 339 339 339 339 339 339 339 338 338 336 331 328 321 317
342 343 343 342 341 340 340 342 343 343 343 344 344 344 344 344 345 344 344 344 343 343 344 344 345 346 345 345 343 342 340 339 338 337 335 335 335 335 335 336 335 334 332 331 330 328 328 328 329 328 328 328 328 329 331 334 335 335 338 338 339 339 339 339 339 339 339 339 339 339 338 338 339 339 339 339 339 339 338 338 335 329 325 319 317
342 344 345 344 344 343 343 343 344 344 343 343 344 344 344 344 344 344 344 343 343 343 343 343 344 346 345 345 343 342 342 342 341 339 338 336 335 335 336 336 335 335 335 335 334 333 333 333 332 331 331 331 332 333 333 336 337 337 338 338 338 338 338 339 339 339 339 338 338 338 338 338 338 338 338 338 338 338 337 336 331 326 323 318 318
344 344 345 345 345 345 345 345 345 344 344 343 344 343 343 344 344 344 343 343 343 343 342 343 344 345 345 344 343 343 343 342 342 341 340 339 339 338 338 338 337 336 336 336 335 335 335 335 335 334 334 335 335 335 336 336 336 336 337 336 336 337 338 338 337 337 336 336 336 337 337 337 338 337 336 336 336 338 337 334 328 324 321 318 319
344 344 345 345 345 345 345 345 345 345 344 344 344 344 344 344 344 344 343 343 343 343 343 342 342 344 345 344 344 343 343 343 342 342 341 342 341 341 341 342 341 340 340 338 336 334 333 333 333 333 334 333 334 334 334 334 334 334 334 334 334 335 336 336 335 334 333 332 333 333 333 332 332 332 333 335 336 336 335 331 325 323 321 318 319
344 345 345 346 345 344 345 344 345 345 345 344 344 344 345 344 344 344 344 344 344 343 343 342 342 344 344 344 344 344 343 343 342 342 342 342 341 341 341 342 341 341 341 340 337 336 334 333 332 332 333 333 333 333 332 332 332 331 331 332 332 332 332 332 331 330 328 326 326 326 325 325 324 325 327 331 332 332 331 328 323 322 321 318 318
344 346 346 345 345 345 345 344 344 345 345 345 344 345 344 344 344 344 343 343 344 344 343 342 342 343 344 344 344 344 344 343 342 342 342 342 342 342 342 341 340 340 341 341 339 338 336 335 335 335 334 335 334 334 333 333 332 331 330 330 330 330 329 328 327 325 323 322 322 322 321 321 320 320 323 326 328 329 327 324 322 321 320 319 318
345 346 346 345 346 346 345 343 343 345 345 345 344 344 344 344 344 344 344 343 344 344 343 342 342 343 344 344 344 344 344 344 343 343 342 342 342 343 342 341 339 339 340 340 339 339 338 338 337 335 335 334 334 334 334 333 333 331 330 328 328 327 326 325 324 322 321 320 320 320 320 319 318 319 321 324 325 325 323 322 320 320 319 318 319
346 346 346 345 346 347 346 343 343 344 344 345 344 344 344 344 345 344 343 343 344 343 342 342 342 342 344 344 344 344 345 345 343 343 342 341 341 342 343 342 341 340 339 338 338 337 338 338 335 333 332 331 330 331 331 331 331 330 328 327 326 326 325 325 324 322 320 320 320 320 320 319 318 318 319 320 322 321 321 320 320 319 319 319 319
345 346 346 346 346 346 345 343 344 344 344 345 344 344 344 345 345 345 344 344 343 343 342 341 341 342 343 343 343 344 344 344 344 343 341 339 340 341 342 342 343 342 341 340 339 336 335 335 332 331 332 331 330 329 329 330 329 329 328 327 326 326 326 325 325 323 321 320 320 320 320 320 319 319 319 320 320 320 320 320 320 320 320 320 320
343 344 345 346 346 345 344 343 344 344 343 344 344 344 345 346 346 346 345 344 343 342 342 341 341 342 343 342 341 343 344 344 344 343 341 339 339 341 341 342 343 343 343 342 341 338 335 335 334 334 334 332 332 331 331 331 329 329 328 328 327 327 326 326 326 325 323 321 321 320 320 320 321 320 321 321 321 321 321 320 321 321 321 321 321
341 343 345 346 346 346 344 343 343 343 343 344 344 345 345 346 346 346 344 344 343 342 341 341 342 342 342 342 341 342 343 343 344 342 341 341 340 341 341 342 342 343 342 341 340 339 338 338 336 334 334 333 334 336 336 334 332 330 329 329 329 328 328 327 327 326 326 324 323 322 321 321 321 321 322 322 322 322 322 322 322 322 322 322 321
340 342 344 346 347 346 344 343 342 342 342 342 343 344 346 347 346 345 344 344 343 342 341 342 343 342 342 342 341 342 342 342 343 342 342 343 342 342 342 342 342 342 342 341 340 340 339 339 337 335 334 335 338 339 339 336 334 332 331 330 330 329 329 328 327 327 327 326 325 325 324 323 323 322 322 322 323 323 322 323 323 323 322 322 323
340 342 344 346 347 347 344 342 343 343 342 341 341 343 346 346 345 345 344 344 344 343 342 343 342 343 342 341 342 342 342 342 342 342 342 343 343 342 343 342 342 341 342 342 341 341 340 340 340 338 337 337 339 340 339 337 334 332 331 331 330 330 330 328 327 327 326 326 325 326 325 325 325 325 325 325 325 324 324 324 323 323 323 323 323
341 342 343 345 347 347 344 343 343 343 342 341 341 343 345 346 345 345 345 344 344 344 343 343 343 343 342 342 342 343 343 342 342 341 342 342 342 343 342 343 342 342 342 342 342 342 341 342 342 341 339 339 339 340 339 337 334 332 331 330 329 329 328 327 326 326 327 327 328 328 328 329 329 329 329 329 328 328 328 328 327 326 326 325 325
341 342 342 344 346 346 344 342 343 344 343 342 341 341 343 345 346 346 345 344 344 343 343 343 343 343 342 342 343 343 343 343 341 341 341 341 341 342 342 342 342 342 342 342 342 342 343 342 342 342 341 341 341 340 339 338 337 336 336 335 333 331 330 329 329 330 331 332 332 333 333 333 334 334 334 334 334 334 334 333 332 332 331 331 330
342 342 342 344 346 346 344 343 343 344 344 343 342 342 342 344 346 346 345 344 344 343 343 343 343 342 342 342 344 344 343 342 342 342 341 340 341 341 341 342 342 342 342 342 341 342 342 342 342 342 342 341 341 340 340 340 339 339 340 340 339 338 337 336 336 336 337 337 337 338 338 339 340 340 340 341 341 341 341 341 340 339 338 337 336
342 342 341 343 346 345 344 344 343 343 343 342 342 342 342 342 344 346 346 344 344 344 343 344 343 343 342 342 343 344 343 342 343 342 341 341 340 340 341 342 342 341 340 339 339 340 341 341 341 341 341 341 340 340 340 341 341 341 342 342 343 342 342 342 342 341 342 342 343 344 344 344 345 346 346 347 348 348 348 347 347 347 346 345 344
343 342 341 342 345 344 344 345 343 343 343 342 342 342 343 342 343 344 345 345 344 343 344 344 344 343 342 342 343 343 343 342 342 342 342 342 340 341 342 342 342 341 340 339 339 340 341 341 341 341 341 341 341 341 341 341 342 343 343 344 345 345 345 346 345 345 346 346 346 347 347 347 348 349 348 349 350 350 350 350 350 350 350 350 349
343 342 341 342 343 344 344 344 343 343 343 343 343 343 343 344 343 344 344 344 343 343 343 343 344 343 341 341 343 343 342 342 341 342 343 343 342 342 341 342 342 341 341 341 341 341 341 341 341 341 341 341 342 342 342 342 343 343 344 345 346 347 347 348 348 348 348 347 347 347 347 347 348 348 348 349 350 351 351 351 352 352 352 352 352
343 342 342 341 342 343 344 344 343 342 343 343 344 344 343 344 344 344 344 344 345 345 343 342 343 343 341 342 343 343 342 341 341 342 343 343 342 341 341 342 342 341 341 341 342 342 342 341 341 342 342 342 342 343 343 342 343 343 344 345 345 346 347 348 348 349 349 350 349 349 349 348 348 349 349 349 350 351 352 353 353 354 354 354 354
343 342 342 341 342 342 343 344 343 343 344 343 345 345 345 345 345 345 345 345 346 346 344 342 343 343 342 342 343 343 343 343 343 343 343 343 342 341 342 343 343 342 342 341 341 342 342 341 341 342 342 343 344 343 343 344 343 343 343 344 344 345 345 346 347 348 349 350 350 351 351 351 350 351 350 352 352 353 354 354 355 354 354 355 355
345 343 342 340 341 341 342 343 343 343 343 344 344 345 347 348 347 346 346 345 345 346 345 343 343 344 343 343 343 342 342 342 342 342 343 343 343 343 343 343 343 343 342 342 341 341 342 341 341 342 343 344 344 344 344 343 343 343 343 343 343 344 344 344 345 345 347 349 350 351 351 352 352 352 353 353 354 354 355 355 355 355 355 355 356
344 343 341 340 339 340 341 342 343 343 343 343 343 344 347 349 347 346 346 345 344 344 344 344 344 344 344 344 343 342 342 342 341 343 345 345 344 344 344 343 343 343 342 340 338 338 339 341 342 343 343 344 344 344 344 344 343 343 342 342 343 343 343 343 343 344 346 348 349 349 351 352 353 353 354 354 354 354 354 355 355 355 356 357 357
343 342 340 339 339 339 340 340 342 342 342 342 342 342 345 347 347 345 345 345 345 345 345 344 344 344 344 345 345 343 342 342 344 347 348 347 346 345 345 345 345 343 341 337 334 334 338 341 342 342 343 344 345 345 345 345 344 341 338 338 338 339 340 342 344 346 349 349 350 350 352 353 354 354 355 355 355 355 355 354 354 355 356 356 356
343 341 339 339 338 338 339 340 341 341 341 341 341 341 342 344 346 345 345 346 345 345 345 345 345 344 344 345 345 343 343 344 347 349 348 348 348 347 346 347 346 343 340 335 332 333 334 337 339 341 344 345 346 346 345 343 340 335 334 335 337 339 341 344 346 349 350 351 352 352 353 355 355 355 355 355 356 355 355 355 355 356 356 356 354
343 342 339 338 338 338 339 339 339 340 340 340 341 341 341 342 344 344 344 345 345 345 345 345 345 345 344 344 343 343 344 347 349 350 349 348 349 348 348 349 348 346 342 337 334 335 334 332 334 338 341 342 342 342 340 338 335 334 334 337 338 340 343 346 348 351 352 353 353 354 354 354 354 355 354 354 355 355 355 355 355 355 354 353 350
342 342 338 337 338 338 338 339 339 339 339 339 340 341 341 341 342 343 344 344 344 345 344 344 344 345 345 344 343 343 345 347 349 349 348 348 348 349 350 350 349 349 347 342 338 338 336 334 335 336 337 338 337 337 335 335 334 334 335 336 338 341 344 347 349 351 352 352 353 353 353 354 354 353 352 353 354 354 354 355 355 354 350 346 343
340 341 339 337 336 337 338 339 338 338 338 338 339 340 340 340 340 341 342 343 344 345 344 343 343 344 344 344 343 344 346 347 347 348 348 348 348 349 350 351 350 350 350 347 344 340 339 338 339 339 337 335 335 334 333 333 332 332 334 334 336 340 344 346 349 350 351 351 352 353 353 354 354 352 351 352 353 354 354 354 351 347 342 339 340
339 339 339 338 336 336 337 338 339 338 338 338 338 339 340 340 340 340 341 341 341 342 343 343 343 343 343 343 344 344 345 346 347 347 348 348 349 349 349 350 351 351 350 350 347 342 340 341 341 340 338 336 334 332 331 330 330 331 332 332 334 338 343 347 349 350 349 349 350 351 352 352 352 351 351 352 354 354 352 348 343 339 337 338 339
336 337 338 338 337 336 336 337 337 337 338 337 338 338 338 339 339 339 340 340 339 339 340 340 340 341 340 341 341 342 342 343 345 346 348 349 349 349 349 349 350 351 350 350 349 344 340 342 341 339 338 336 332 331 329 327 329 330 331 331 332 337 342 346 347 347 347 347 349 351 351 351 351 352 353 353 353 351 346 341 338 337 337 336 333
336 336 336 337 338 336 336 337 337 337 337 337 337 337 337 337 338 339 338 339 339 339 338 338 338 338 338 338 338 338 339 340 341 343 346 349 349 348 348 348 348 349 349 349 349 344 337 338 339 338 337 335 331 331 329 326 327 329 330 330 331 336 341 343 344 346 347 350 352 353 354 354 354 354 353 351 348 345 341 339 338 337 334 330 327
335 336 335 335 336 335 335 335 337 338 337 334 332 332 332 334 335 337 338 338 338 338 338 337 337 337 337 337 336 337 337 338 338 340 341 343 345 346 346 347 346 346 346 346 346 343 337 334 337 336 335 333 331 329 328 327 328 328 330 331 332 334 339 342 345 348 351 354 355 356 356 355 354 353 350 347 344 341 339 338 335 332 328 325 324
332 334 334 333 334 334 333 334 335 334 331 329 327 326 326 328 329 331 334 336 337 338 338 338 338 338 338 337 337 337 337 338 337 337 337 337 339 341 342 343 342 341 341 341 341 340 337 335 335 335 334 332 330 329 328 327 328 329 331 332 333 335 338 343 348 352 355 356 356 356 356 355 354 351 346 343 341 339 337 335 330 327 325 324 323
330 331 332 333 333 333 331 330 330 328 327 326 325 325 325 325 325 327 329 331 333 335 336 337 338 339 339 338 338 338 338 337 336 336 336 336 336 337 337 338 338 338 338 338 337 338 337 336 335 336 334 332 329 328 328 327 328 329 331 333 335 336 340 347 352 354 355 355 356 356 355 353 352 348 344 341 338 336 334 330 326 325 324 323 323
328 329 331 332 333 332 329 328 327 325 325 325 325 325 325 325 325 325 326 328 330 332 333 333 335 336 338 338 339 339 338 338 337 336 336 336 335 336 336 336 337 337 337 336 336 337 337 336 335 335 334 332 329 328 328 328 327 328 330 333 337 339 342 349 354 355 356 356 356 354 352 350 348 345 341 338 335 333 330 327 324 324 323 323 323
328 328 329 330 331 331 329 328 327 326 326 325 325 326 326 326 326 325 326 325 327 329 330 331 332 333 334 335 336 338 338 338 337 336 336 336 336 335 335 335 336 337 336 336 336 335 335 335 335 334 334 332 329 327 328 329 328 330 332 332 336 341 343 348 353 355 355 356 355 353 350 347 345 342 339 336 333 331 328 325 324 324 323 323 323
330 329 328 329 329 330 329 330 329 328 327 326 326 326 326 326 326 326 326 325 325 325 327 330 331 332 333 332 333 334 335 336 337 336 336 335 335 335 334 334 334 335 335 335 335 334 334 334 333 333 333 332 330 328 328 329 330 333 334 332 334 339 342 345 350 353 355 356 355 352 349 346 344 343 340 336 335 332 328 324 323 323 323 323 323
329 330 330 329 329 329 329 330 329 329 329 328 327 326 326 326 326 326 326 326 325 324 325 327 328 331 333 332 332 332 333 334 335 336 336 335 335 334 334 333 334 333 333 332 333 332 333 332 331 331 331 330 329 328 328 330 332 334 336 336 336 338 342 344 349 353 355 355 355 353 350 348 347 346 345 342 339 335 329 324 323 323 323 323 323
328 328 329 329 329 329 329 328 329 329 329 328 328 327 327 326 326 326 326 325 325 324 325 325 326 328 331 333 332 332 333 333 333 334 335 335 335 334 333 333 333 332 332 331 331 331 331 331 330 329 329 328 328 329 328 330 334 336 339 341 341 340 341 343 347 351 353 355 355 354 352 350 350 349 349 346 343 337 329 324 323 323 322 323 323
335 331 329 328 328 328 328 328 328 328 328 328 327 327 327 326 326 325 326 325 325 324 324 325 325 326 329 332 333 333 333 333 332 333 334 334 335 334 333 334 333 334 333 332 331 330 329 329 329 329 330 328 327 329 330 330 335 339 341 342 343 342 341 341 343 347 352 353 355 354 353 352 351 351 351 348 345 339 331 324 322 323 322 322 323
344 340 337 333 331 329 328 328 327 327 326 326 326 326 325 325 325 325 325 324 324 325 324 324 324 326 328 331 333 335 335 334 333 333 333 333 334 334 334 334 334 334 334 332 332 330 330 331 333 335 336 332 329 330 332 333 337 340 341 343 344 344 345 344 343 345 349 352 354 354 354 353 352 352 352 349 346 340 331 324 322 322 322 322 322
349 347 346 343 340 337 335 334 332 331 330 328 326 326 326 325 325 325 325 325 325 324 324 324 325 326 328 331 333 335 335 335 335 334 333 332 333 333 333 334 333 333 333 333 332 332 331 334 337 339 339 337 333 332 335 337 339 341 343 345 346 346 348 348 347 346 348 350 353 354 354 354 354 353 352 350 346 341 331 324 323 322 322 322 322
350 350 349 348 347 346 345 343 341 339 336 333 331 331 329 328 328 328 328 328 328 327 327 327 328 329 330 332 335 336 335 336 335 335 334 333 332 333 332 333 332 332 333 332 333 333 333 334 337 336 336 338 337 335 337 341 342 343 346 348 347 346 346 348 349 348 348 349 352 354 355 355 355 354 353 350 346 341 331 324 322 322 321 322 322
351 351 351 351 351 350 349 348 347 346 343 340 338 336 334 333 333 332 332 331 331 331 331 331 331 331 332 334 336 337 337 337 336 336 336 334 334 333 332 332 332 332 332 332 333 334 334 335 336 334 333 336 338 337 339 342 343 344 346 347 346 344 344 345 345 346 348 350 352 353 355 355 355 354 353 350 346 340 330 324 322 322 322 321 322
352 352 352 352 351 351 352 351 351 351 349 347 344 341 338 336 336 336 335 335 334 333 334 333 334 334 335 336 337 337 337 338 337 336 337 337 337 337 335 333 332 331 331 332 332 334 335 336 336 335 334 336 337 338 340 343 344 344 345 345 343 341 342 342 341 342 347 350 351 352 353 354 354 355 353 350 346 339 330 324 322 322 322 321 322
353 353 353 353 353 353 353 353 353 354 353 351 349 347 343 341 341 341 339 337 336 335 336 336 336 337 337 338 338 339 338 338 338 337 337 338 339 339 338 336 335 333 332 331 332 332 334 334 336 336 336 336 337 337 338 341 342 343 344 343 340 340 342 342 341 341 344 348 351 351 352 353 354 353 352 350 347 339 329 323 322 322 322 321 322
353 354 354 354 355 355 355 355 355 356 356 354 352 349 346 345 345 344 341 339 338 338 337 338 338 338 340 340 340 340 339 338 337 336 338 340 340 340 340 338 338 336 333 331 331 332 333 334 335 336 337 336 336 336 337 339 340 340 341 340 339 341 343 343 342 341 343 348 352 351 352 353 353 353 352 350 346 338 328 323 322 322 322 322 322
355 355 355 356 356 356 356 356 356 358 358 357 356 354 350 348 347 346 344 341 340 339 339 339 340 340 341 341 341 340 339 337 337 337 339 342 342 341 341 340 340 338 334 331 331 331 332 333 334 335 336 336 336 337 337 339 340 340 339 338 338 341 341 341 342 342 344 348 351 351 351 352 353 353 352 350 346 337 327 323 322 322 322 322 323
356 356 356 357 356 357 357 357 357 358 358 359 359 357 355 352 349 347 346 344 342 341 340 341 341 341 342 342 341 341 340 338 337 338 341 343 343 342 341 341 340 338 332 329 330 331 331 332 333 334 334 335 336 337 339 340 341 340 339 338 338 338 338 338 342 345 347 349 349 349 350 351 352 353 352 350 345 336 326 323 322 322 322 323 323
Wind_Speed
8 8 8 8 8 7 7 6 6 7 7 8 8 8 9 9 9 8 8 8 8 9 9 9 8 8 8 9 9 9 9 8 8 7 7 7 7 7 7 7 6 4 3 3 2 1 1 1 1 2 2 2 3 3 3 3 4 4 4 5 5 6 6 8 9 9 10 10 10 10 10 10 10 10 11 11 11 11 10 10 10 9 9 7 6
8 8 8 8 7 6 6 5 5 6 6 6 6 7 8 8 8 8 8 8 8 8 8 8 8 8 8 8 9 9 10 9 8 8 8 7 7 7 7 7 7 7 6 4 4 3 3 3 3 3 3 3 3 3 3 3 3 4 4 5 6 7 7 8 9 9 9 9 10 10 10 10 10 11 11 11 11 10 10 10 9 9 8 7 5
7 7 6 6 6 5 5 5 4 5 5 5 6 6 7 7 7 7 7 7 7 7 8 8 7 7 8 8 8 10 10 10 9 9 8 8 7 7 7 7 7 7 6 6 5 5 5 4 5 4 4 4 4 4 3 3 3 4 5 6 7 7 8 9 9 9 9 10 10 10 10 10 11 11 11 11 10 10 9 9 9 8 7 6 5
7 6 5 5 5 5 5 5 4 5 6 6 6 7 7 7 7 7 6 6 5 5 6 6 7 7 7 7 8 9 10 10 10 9 9 8 8 7 7 6 6 6 5 5 5 4 4 4 4 4 4 4 4 4 4 4 5 5 6 7 8 8 9 9 9 9 9 10 9 10 10 10 11 11 11 10 9 9 9 8 8 7 6 6 4
7 6 5 5 5 5 4 5 5 6 6 7 7 7 7 7 7 6 5 5 4 3 4 5 6 6 7 7 7 8 9 9 10 9 9 8 7 6 6 6 6 6 5 5 5 4 4 4 4 4 4 4 5 5 6 6 7 8 8 8 9 9 9 9 9 9 9 9 9 9 10 10 10 10 10 10 9 9 9 8 8 6 5 5 4
7 6 6 5 5 5 5 5 5 5 6 7 8 8 8 8 8 7 5 4 3 2 3 4 5 6 7 7 7 7 8 8 9 9 9 8 7 6 6 6 6 6 6 6 6 6 5 5 5 5 5 6 6 7 7 8 8 8 9 9 10 9 9 10 11 11 10 10 9 9 9 9 10 10 10 9 9 9 8 8 7 6 5 5 4
6 6 5 5 5 5 5 6 6 6 6 7 8 9 8 9 9 8 7 5 2 1 2 3 3 4 6 7 7 7 7 7 8 8 8 8 8 8 7 7 6 6 7 7 7 7 7 6 7 7 7 7 7 8 8 8 8 9 9 10 10 11 11 11 11 11 10 10 10 9 9 9 10 10 9 9 9 9 8 8 7 6 6 5 5
6 5 5 4 5 6 6 6 6 6 6 7 8 8 8 10 10 8 7 6 3 1 2 2 1 2 4 6 6 7 6 5 5 6 7 7 8 9 9 9 7 6 6 6 7 7 7 7 7 8 8 8 8 8 8 8 9 9 9 10 10 11 11 11 11 10 10 9 9 9 9 9 9 9 8 8 8 8 8 7 6 6 6 6 6
5 4 4 5 5 6 6 5 6 6 6 6 7 7 8 9 9 8 8 6 4 2 0 1 1 2 3 4 5 5 5 4 3 4 5 5 7 8 9 10 8 7 6 6 6 6 7 7 7 8 7 7 7 8 8 8 8 8 9 9 9 10 10 10 10 10 10 9 9 9 9 8 8 8 7 7 7 7 7 6 6 6 7 7 8
4 4 4 5 5 5 5 5 5 7 7 6 5 6 7 8 8 8 8 7 5 4 2 0 1 2 3 4 4 4 4 3 3 4 4 4 5 7 8 8 8 8 8 7 6 6 6 6 7 7 7 7 7 7 7 7 8 8 8 8 9 9 9 10 10 10 10 10 9 9 9 8 8 8 8 8 8 7 7 7 7 7 8 8 9
3 3 4 4 4 4 5 5 4 5 6 6 5 6 7 7 7 8 8 8 7 6 4 2 1 1 2 3 4 4 3 3 3 4 3 2 4 5 6 7 7 8 8 8 8 7 5 6 6 6 6 7 7 7 7 7 7 7 7 8 8 9 9 9 9 10 10 10 9 9 9 9 9 9 9 9 8 8 8 8 8 9 9 10 10
2 3 4 4 4 4 4 5 5 5 5 6 6 6 7 7 7 8 9 9 7 7 5 3 2 2 2 4 4 4 3 2 2 3 2 2 3 3 4 5 6 7 7 8 8 7 6 6 5 5 6 6 7 7 7 7 6 6 7 8 8 8 9 9 9 9 9 9 9 9 9 9 9 9 9 9 9 9 9 9 9 9 10 10 11
3 3 4 4 4 5 5 5 6 5 5 6 7 7 7 7 8 8 8 8 7 7 6 4 3 3 3 5 5 4 4 2 1 2 2 2 2 2 3 4 5 6 6 7 7 7 7 6 5 5 5 6 6 7 7 7 6 6 6 7 8 8 9 9 9 8 8 8 8 8 8 8 9 8 8 9 9 9 9 9 10 10 11 11 12
3 4 5 5 5 5 5 5 6 6 6 7 7 7 8 8 8 7 8 7 5 6 6 5 5 4 4 6 6 5 5 3 1 1 2 1 1 2 3 4 5 5 5 6 6 7 7 6 5 4 5 5 6 7 7 7 7 6 6 7 8 8 9 9 9 8 8 8 8 8 8 9 9 9 9 9 9 10 10 10 10 11 11 12 13
4 5 6 6 5 5 5 6 6 6 6 7 7 8 9 9 9 8 7 7 5 6 5 5 5 4 4 5 6 6 5 4 3 1 1 1 0 2 3 4 5 5 5 5 6 6 6 6 6 5 5 5 6 7 7 7 7 7 7 7 7 8 8 8 8 8 8 8 8 8 9 9 10 10 10 10 10 11 11 11 11 11 12 13 13
5 6 6 7 6 5 5 6 6 6 6 6 6 7 9 10 10 9 7 7 6 6 5 4 3 3 4 5 6 6 6 7 5 3 1 0 1 2 3 4 5 5 5 5 6 6 6 6 6 6 6 6 7 7 7 8 8 8 8 7 8 8 8 7 8 8 8 8 9 9 9 10 10 11 11 11 11 11 12 12 12 12 12 13 13
6 6 7 7 7 6 6 7 7 6 6 6 5 7 9 11 12 10 8 7 6 6 5 4 4 4 4 5 5 5 8 10 7 3 2 2 2 2 4 5 6 6 6 5 5 6 6 6 6 6 6 6 7 7 7 8 8 8 8 8 9 8 8 8 8 9 9 10 10 10 10 11 11 11 12 12 12 12 12 13 13 13 13 13 14
7 7 7 8 8 7 7 7 7 6 6 6 6 7 8 10 12 11 10 8 7 6 5 5 5 5 5 4 4 6 9 10 8 6 4 1 2 4 5 7 7 6 6 5 5 5 5 5 5 5 5 6 6 6 6 7 8 8 8 9 9 10 10 10 10 10 11 11 12 12 12 12 12 12 13 13 13 13 13 13 13 14 14 14 14
8 8 8 9 9 9 8 7 7 7 6 6 7 7 7 9 11 12 12 11 9 8 6 6 5 5 5 5 5 6 8 7 7 8 7 3 3 4 7 8 8 7 5 5 5 5 4 4 4 4 4 4 5 5 6 7 7 8 9 10 10 11 11 11 12 12 12 12 13 13 13 13 13 13 13 13 13 13 13 14 14 14 15 15 16
9 9 8 9 10 9 9 8 7 7 7 6 6 7 7 8 10 11 12 12 11 9 7 7 5 4 5 5 5 5 5 5 5 7 9 7 5 5 7 8 8 7 6 6 6 5 4 4 4 4 4 5 5 6 6 7 7 8 9 10 11 11 12 12 12 12 12 13 13 13 13 13 13 13 13 14 13 13 13 13 14 14 15 16 16
10 10 10 10 10 10 9 8 7 7 7 6 7 7 7 8 9 10 11 11 11 10 8 8 7 6 6 5 5 4 4 4 5 6 7 8 7 7 8 8 6 6 7 7 7 6 5 4 5 5 6 6 6 6 6 6 6 7 8 9 10 10 11 11 11 11 12 12 13 13 13 13 14 14 14 15 15 14 14 14 14 14 15 15 17
11 11 11 11 11 10 10 9 8 8 7 7 7 7 7 7 8 9 9 9 9 9 8 9 8 7 7 5 5 5 5 4 5 6 7 8 8 8 9 9 8 7 8 8 7 7 6 5 6 7 7 7 7 7 7 6 6 6 6 7 8 9 10 10 11 11 12 12 13 13 13 13 13 13 14 15 15 15 15 14 14 14 15 16 17
12 12 12 12 12 11 10 10 9 9 8 8 8 7 7 7 7 8 8 8 8 8 8 9 8 7 6 5 6 6 6 6 5 7 8 8 8 8 8 8 9 9 9 9 8 8 7 6 6 6 6 7 8 8 8 8 7 7 7 7 8 9 11 12 14 14 13 13 13 13 13 13 13 13 13 13 14 14 15 14 15 15 15 17 18
13 14 14 13 13 12 12 11 11 10 9 8 8 7 7 8 7 7 7 6 7 7 7 8 8 7 6 6 7 7 7 7 7 7 8 8 9 9 9 9 10 10 11 11 10 8 7 6 5 5 6 7 8 9 10 9 9 9 10 10 11 12 13 16 17 16 15 14 14 13 13 13 12 12 12 12 12 14 15 15 15 16 17 18 19
15 15 15 14 14 13 13 12 12 11 10 9 8 8 8 8 8 8 6 5 5 6 6 7 7 7 7 7 7 8 8 7 6 6 7 8 9 9 9 10 11 11 11 12 11 8 6 6 6 7 8 9 10 11 11 11 12 13 14 14 15 16 16 17 17 16 14 14 13 12 11 10 10 10 10 10 11 13 15 16 16 17 19 20 20
16 15 15 15 14 14 13 12 11 11 11 10 9 9 9 9 9 8 7 5 5 5 5 5 6 7 7 7 7 7 6 5 5 5 6 7 8 9 10 11 11 12 12 12 11 9 6 6 7 8 10 11 12 12 13 14 15 17 17 17 17 17 16 16 15 14 13 12 10 9 9 9 9 10 10 11 13 14 16 17 18 19 20 21 22
16 15 15 15 15 14 14 12 12 12 12 11 10 9 10 10 10 9 8 6 6 5 5 5 6 6 7 7 6 6 5 4 5 5 6 6 7 8 10 12 13 14 13 11 10 9 8 6 7 8 9 12 13 15 16 17 18 19 19 18 17 17 16 14 13 12 11 10 9 8 9 10 11 12 13 14 15 16 17 18 20 21 22 23 25
17 16 16 16 15 14 14 13 12 13 12 11 10 10 10 10 10 10 9 7 7 6 5 6 6 6 7 7 7 7 7 6 6 6 6 6 7 7 9 11 14 16 16 13 11 10 10 8 8 7 8 11 13 14 16 17 18 18 18 18 17 16 15 14 12 11 11 10 10 11 11 12 13 14 15 16 17 17 19 20 21 23 25 26 26
18 17 17 17 16 15 15 14 13 13 13 12 11 11 11 11 10 10 9 9 8 7 7 7 7 7 7 7 8 9 9 9 8 8 8 8 8 8 9 11 13 15 17 16 14 12 10 9 9 8 8 10 12 13 13 15 15 16 16 17 17 16 15 13 12 11 12 13 13 14 14 14 15 16 16 17 18 18 19 20 22 24 25 24 23
19 18 18 18 17 17 16 15 14 14 14 13 12 12 12 12 11 10 9 9 9 8 7 7 7 7 7 7 9 10 11 12 11 11 10 11 11 11 11 12 13 14 15 16 17 12 9 9 9 10 10 10 11 12 11 13 14 14 15 16 16 16 15 13 13 13 13 14 14 15 15 16 17 17 18 18 18 18 19 21 22 23 22 21 21
21 20 19 19 18 18 17 16 16 15 15 14 13 13 13 13 12 11 10 10 9 8 8 8 7 7 7 7 8 9 11 12 13 13 13 13 13 12 13 13 13 14 14 15 17 15 12 12 10 9 11 11 11 11 10 11 13 14 15 15 16 15 14 13 12 12 13 14 15 15 16 17 18 18 18 18 19 19 20 20 20 20 20 20 21
22 21 21 21 20 18 18 17 17 17 16 15 15 14 14 14 13 12 11 10 10 9 9 9 9 8 8 8 9 9 10 11 12 13 13 13 14 13 14 13 13 14 14 15 18 18 15 13 11 9 10 11 10 11 11 11 12 13 15 16 16 15 13 11 11 12 14 15 15 16 16 17 17 17 18 19 19 19 19 19 19 19 20 21 23
24 23 22 22 21 20 18 18 18 17 17 16 15 15 15 15 14 13 13 12 12 11 10 10 10 9 10 10 9 9 9 10 11 12 13 13 14 14 15 15 14 14 15 16 19 20 15 12 11 10 10 11 10 11 12 12 12 14 15 16 15 14 12 11 12 13 14 15 15 16 17 17 17 18 18 19 19 19 18 18 19 20 21 22 24
26 24 23 23 23 21 20 19 19 18 17 16 15 14 14 14 14 14 14 14 14 13 12 11 11 10 11 10 10 9 9 11 11 11 12 13 14 14 14 15 15 14 15 16 19 21 18 13 12 10 10 11 11 11 13 13 15 17 17 17 15 13 13 13 13 13 13 14 15 17 18 18 18 19 19 18 17 17 17 18 19 20 22 23 24
27 25 24 23 23 22 21 21 20 19 18 17 16 15 14 14 14 14 15 15 15 15 14 14 13 13 13 13 11 10 10 11 11 11 12 12 13 14 14 15 15 15 15 16 17 20 20 18 14 12 11 12 12 12 13 14 15 18 18 18 16 14 13 13 12 11 12 13 16 18 19 19 19 18 17 16 16 16 17 19 20 22 22 23 23
29 27 25 24 24 23 23 22 22 21 20 19 18 17 16 16 15 15 16 16 16 16 16 15 15 15 15 15 14 13 12 12 12 12 13 13 13 14 14 14 15 15 15 16 16 18 20 20 17 16 15 14 12 13 14 14 15 17 18 18 17 14 11 12 11 10 11 13 16 19 19 18 17 16 15 15 16 17 18 20 22 22 22 22 23
30 29 28 27 26 26 25 24 23 23 22 21 20 19 18 17 17 17 17 17 17 17 17 17 16 16 16 15 15 14 15 14 13 12 12 13 13 13 13 13 13 14 14 15 16 17 19 20 19 18 17 15 13 13 15 16 17 17 17 17 16 14 10 9 11 11 11 13 16 18 18 17 15 15 15 16 17 18 21 22 22 22 22 22 24
32 31 31 30 29 29 28 27 26 25 24 23 22 21 20 19 19 19 19 19 19 18 18 17 17 17 17 16 16 15 16 15 14 13 12 12 13 13 13 12 13 14 14 14 15 17 18 19 20 19 18 17 15 14 14 17 18 19 20 17 14 13 10 9 11 12 12 13 16 18 18 16 15 15 16 17 18 20 22 22 22 22 22 23 24
35 34 33 32 31 31 31 30 30 29 28 27 25 24 23 22 22 21 21 21 21 20 19 18 17 17 17 17 17 17 17 17 16 14 13 13 13 13 13 13 13 14 14 15 16 17 18 19 19 19 18 17 17 16 15 16 17 18 20 20 16 14 13 11 11 12 12 13 16 18 18 17 17 17 18 19 21 23 23 23 22 22 23 23 24
38 37 36 34 33 33 33 33 33 32 32 31 30 28 27 26 25 24 23 23 22 22 21 20 18 18 18 18 18 18 18 18 18 16 15 14 14 14 14 14 14 15 15 16 16 17 18 19 19 18 18 18 18 17 16 15 16 16 18 20 20 18 16 14 12 13 13 13 15 18 19 19 19 19 21 22 23 25 25 23 22 22 22 23 25
38 38 38 37 36 36 35 35 35 35 35 35 34 33 31 29 28 27 26 25 24 23 23 22 21 20 19 19 19 19 19 19 19 19 18 16 16 16 15 15 16 16 17 17 18 18 19 20 20 19 19 19 18 17 16 15 15 16 18 20 20 19 18 16 13 12 14 14 15 17 18 19 20 21 22 23 25 26 26 24 22 22 22 24 26
37 38 38 38 38 38 37 37 37 37 38 37 36 35 34 33 31 30 29 27 26 25 25 24 23 22 21 21 21 20 20 20 20 20 20 19 19 18 17 17 17 18 19 19 19 20 20 21 20 19 19 20 18 16 16 15 15 16 17 19 20 19 19 17 13 12 14 15 16 18 19 20 21 22 23 24 25 27 27 25 22 22 22 24 26
35 36 37 38 39 38 38 38 38 39 39 38 37 36 35 34 34 32 31 29 28 28 27 26 26 24 23 22 22 22 21 21 21 21 21 21 21 21 20 19 19 19 20 20 20 20 20 21 20 19 20 21 19 17 16 15 15 16 17 18 20 20 19 19 17 14 15 17 18 19 20 21 21 22 23 23 25 27 27 25 23 22 23 24 26
33 34 35 36 37 37 38 38 39 39 39 38 38 37 36 35 35 34 33 31 30 29 29 28 28 27 25 24 23 23 23 23 22 22 22 23 23 22 21 20 20 20 20 20 20 20 20 21 21 20 20 21 20 18 16 15 15 16 18 19 20 19 19 19 19 17 16 17 19 19 20 21 21 22 23 23 24 26 27 24 23 22 23 24 26
33 34 33 34 34 35 36 37 38 38 38 38 38 37 37 36 35 35 34 33 32 31 30 30 29 28 26 25 24 24 24 24 24 23 24 24 24 24 23 22 21 21 21 21 20 20 20 21 22 23 21 21 21 19 16 16 17 18 19 20 20 20 19 19 20 19 17 17 19 20 20 21 21 22 22 22 23 26 26 24 22 22 23 25 26
34 34 33 33 34 34 34 35 35 36 37 37 37 37 36 35 35 35 35 34 33 32 31 30 29 27 27 26 26 25 25 25 25 24 24 24 24 25 24 24 23 23 22 21 20 20 21 21 23 24 22 22 23 21 18 18 20 20 21 22 21 21 20 20 20 21 19 18 19 21 21 21 21 22 22 21 23 25 25 23 22 22 23 25 26
33 32 32 33 33 33 34 34 35 36 36 36 36 36 36 35 34 34 34 34 33 32 30 29 28 27 26 27 26 26 25 25 25 25 25 25 25 25 25 26 25 24 24 23 22 21 21 22 23 24 24 23 23 23 21 20 21 22 22 23 23 23 22 21 21 21 20 19 19 21 22 22 21 21 20 20 22 24 24 22 21 21 22 24 26
32 32 33 33 33 33 33 34 35 36 35 35 35 35 35 34 33 33 34 34 33 32 30 28 27 27 26 27 27 26 26 25 25 25 25 25 25 25 26 26 26 26 26 25 24 23 23 24 24 25 25 24 24 24 24 23 23 23 24 25 24 23 23 23 22 20 19 19 19 20 22 23 22 20 19 19 21 22 22 21 20 21 22 24 25
32 32 32 32 32 32 32 33 34 34 33 32 33 34 34 33 33 33 33 33 33 32 30 28 27 27 27 27 27 27 27 26 26 25 25 25 25 25 26 26 26 27 28 27 26 25 25 25 25 25 25 24 24 24 24 24 24 24 25 26 25 22 22 24 24 21 19 19 19 20 22 22 20 19 18 18 20 20 20 19 19 20 21 23 25
32 31 32 32 33 33 33 33 33 33 32 30 29 31 31 32 33 33 33 32 32 32 30 28 27 27 27 27 27 28 28 28 27 26 25 25 26 26 26 26 26 28 29 28 28 27 26 25 25 25 24 23 23 22 22 22 22 22 24 25 24 22 22 23 24 22 20 19 18 18 20 20 18 18 17 18 19 19 18 17 18 20 21 22 24
32 32 33 34 34 34 34 33 33 33 32 30 28 29 29 30 32 32 32 32 33 32 31 29 28 28 27 27 27 29 29 29 27 26 26 26 26 26 26 26 28 30 30 29 28 28 27 27 26 25 24 23 22 21 21 20 20 21 23 24 23 23 23 24 22 21 22 21 18 17 18 19 18 17 17 18 19 19 17 16 18 19 20 21 22
Wind_Direction
129 129 132 138 139 136 132 128 127 127 130 130 127 126 125 122 117 109 101 93 90 89 91 91 89 86 84 81 78 75 74 73 71 69 65 64 63 63 63 65 74 91 111 121 122 117 37 22 27 28 28 16 8 12 22 13 6 5 357 356 358 356 357 360 3 0 0 2 359 357 356 355 354 352 350 352 354 355 355 355 355 346 343 359 19
135 132 133 138 145 147 144 142 142 143 146 147 144 140 135 131 126 118 107 98 91 87 85 87 89 89 88 86 83 77 75 75 74 72 68 66 65 65 63 62 65 66 69 69 63 54 45 42 44 47 43 33 24 21 22 11 3 359 358 357 356 355 354 355 357 353 354 357 353 351 352 350 348 347 348 349 349 350 351 349 345 336 338 1 18
143 139 138 140 147 157 163 164 165 165 166 165 163 157 149 143 138 131 121 109 96 87 79 78 83 89 92 90 88 83 79 79 78 76 73 71 70 71 68 65 66 65 63 61 59 57 53 52 52 50 46 40 36 26 21 12 2 359 359 354 350 350 349 350 353 350 350 352 349 346 346 345 342 341 342 342 342 343 344 339 332 327 337 357 9
153 151 152 154 160 167 178 184 189 187 182 177 176 170 160 155 154 149 139 127 108 94 80 73 77 83 93 98 97 91 84 81 78 77 75 74 73 74 74 72 72 71 70 66 64 64 59 55 51 46 40 33 29 25 18 8 0 356 354 350 348 347 348 349 350 349 346 346 345 340 338 338 335 333 333 333 334 336 335 329 323 326 340 349 353
162 159 160 166 175 178 186 194 200 199 194 188 188 183 176 174 175 170 160 145 120 104 83 74 78 83 91 98 102 95 86 80 76 76 76 77 76 73 71 70 70 66 63 59 54 51 46 44 39 34 28 20 13 9 3 357 353 350 348 348 348 347 349 349 348 346 343 341 339 334 331 329 325 321 322 324 325 328 326 322 321 325 334 337 334
167 165 163 164 174 182 192 199 199 201 201 197 195 193 190 192 193 191 182 164 135 111 82 74 80 87 89 90 95 90 85 82 79 77 73 72 73 67 61 58 59 55 50 45 42 38 32 29 28 25 20 16 10 5 0 356 352 349 348 349 350 350 351 349 346 345 342 339 335 330 326 320 317 314 313 315 316 320 320 319 318 319 322 324 317
171 171 170 165 165 173 187 193 190 194 201 200 196 197 201 201 201 201 196 184 178 147 59 59 76 89 87 82 83 81 80 81 77 73 68 67 65 59 52 47 49 49 45 39 35 34 32 31 29 26 22 17 12 7 4 0 355 351 350 351 353 355 355 352 350 348 346 343 338 333 329 324 321 316 311 311 313 318 321 319 316 313 314 313 304
174 176 174 166 165 175 187 191 189 193 201 202 201 204 205 203 201 202 199 197 202 210 19 10 65 105 90 75 70 67 66 69 66 63 63 65 61 55 47 42 47 50 41 33 30 28 27 30 29 25 21 15 11 8 4 2 358 355 353 353 356 358 358 358 357 356 353 350 346 342 339 335 331 326 318 315 316 320 322 319 313 309 308 306 299
181 184 177 166 168 182 191 192 191 196 203 208 209 207 203 200 200 200 198 198 205 214 336 6 130 109 81 66 57 49 50 51 46 46 54 61 55 52 45 42 45 42 34 30 26 22 19 20 19 16 14 13 10 7 4 1 359 358 358 358 0 1 1 1 360 360 359 357 354 352 349 347 344 339 332 326 323 323 322 318 314 311 308 305 299
192 193 189 181 179 190 196 194 193 197 203 208 208 203 199 196 195 197 198 196 198 205 212 197 110 80 62 53 45 46 49 51 43 35 42 61 60 55 48 43 41 34 30 29 22 17 13 10 11 11 13 17 14 10 8 5 2 1 1 1 3 3 2 1 1 1 1 360 358 358 357 355 354 350 347 342 334 331 331 328 323 318 313 308 303
206 202 199 196 190 191 196 196 199 203 207 210 208 203 199 195 196 201 200 198 200 206 224 261 304 39 35 22 21 36 45 51 45 33 41 79 72 58 49 41 36 30 24 23 21 21 20 15 17 20 22 26 24 22 19 14 9 3 359 360 1 1 1 360 0 1 1 1 359 359 359 358 358 358 356 350 343 342 340 335 327 322 317 312 308
231 212 200 200 194 194 201 203 207 210 209 207 206 205 202 200 205 209 203 203 208 211 228 256 279 316 341 348 353 9 24 36 37 32 63 105 81 59 49 35 26 22 17 17 21 26 30 24 24 27 30 35 35 31 26 18 10 3 358 355 355 356 357 356 357 359 0 1 0 358 357 356 358 358 356 352 349 347 342 336 330 324 319 314 311
246 225 205 203 204 207 211 212 210 209 206 200 201 202 202 205 210 211 208 210 215 213 219 239 263 297 326 337 338 338 350 8 37 71 110 113 86 56 38 28 22 16 13 19 25 29 31 28 29 37 44 46 40 31 23 13 2 356 353 351 351 351 352 351 351 353 357 359 359 359 357 354 355 355 351 348 347 347 342 336 331 327 323 318 315
242 233 215 208 212 217 215 213 210 208 208 207 207 201 197 206 211 209 209 212 211 206 210 234 257 283 311 327 335 327 326 342 13 130 143 134 86 54 27 25 26 19 18 26 29 29 32 33 35 42 46 41 33 27 19 11 3 356 354 351 349 348 347 347 346 346 350 357 358 358 358 355 353 353 351 346 342 342 338 333 328 325 323 320 319
229 233 221 209 213 225 217 209 207 209 216 218 215 204 198 204 207 207 210 210 204 203 210 235 252 272 295 314 333 330 332 345 327 265 185 169 72 33 19 19 22 19 16 16 18 20 22 27 31 31 29 27 26 26 21 17 15 11 6 359 353 350 350 351 351 351 353 1 4 3 2 0 357 356 355 352 347 343 339 335 330 324 321 320 319
218 226 221 212 215 224 215 205 205 209 215 217 214 206 203 205 205 206 213 214 211 212 217 233 244 264 288 306 327 332 345 352 333 280 240 4 29 21 16 12 13 9 2 1 1 3 3 5 15 22 25 27 27 27 24 24 25 24 20 13 7 3 1 359 0 4 6 9 12 10 8 5 2 359 356 354 350 347 343 339 334 329 326 323 320
214 220 219 216 215 219 215 208 210 215 216 216 214 209 209 209 207 207 215 219 219 221 230 246 258 271 281 298 325 336 343 350 352 330 307 349 20 26 16 4 1 359 351 349 347 345 345 347 356 5 12 18 21 21 23 25 26 26 23 20 17 13 10 6 4 6 8 9 9 7 5 3 0 358 355 352 349 345 341 337 334 331 328 325 321
214 216 216 216 217 218 217 213 214 217 220 220 217 215 216 214 212 213 219 224 225 231 241 252 265 272 269 279 305 319 328 341 353 348 335 348 16 13 8 360 358 356 344 339 341 337 333 340 347 354 0 5 10 12 15 18 19 20 21 19 18 15 12 8 5 3 2 2 2 1 0 359 357 355 352 350 346 343 339 336 332 329 325 321 317
214 213 213 213 216 217 215 214 214 214 218 222 223 221 219 217 218 219 223 228 233 238 241 242 255 267 265 274 290 304 318 332 345 348 349 348 355 3 357 352 356 358 350 341 342 341 338 346 358 7 13 12 12 14 16 19 21 22 23 20 18 16 14 11 9 7 4 3 1 0 359 357 355 352 349 347 343 339 337 334 331 328 325 320 317
216 214 211 210 212 214 213 214 214 214 218 221 222 219 215 217 221 222 227 232 236 241 240 235 239 256 267 271 277 294 313 327 337 343 345 345 355 4 347 346 360 1 0 360 352 351 357 10 25 35 40 31 21 19 20 23 25 28 27 24 21 18 15 13 11 8 4 1 358 355 353 351 349 346 344 340 335 332 330 328 326 324 320 318 317
218 215 211 210 210 212 216 216 215 219 221 218 215 213 213 217 221 225 230 234 239 248 249 239 237 254 267 260 257 286 312 326 336 338 339 339 349 357 347 349 7 1 353 356 355 358 7 23 39 39 32 23 11 5 6 10 16 24 26 23 20 17 12 7 3 359 354 350 346 343 340 338 337 336 334 332 329 327 324 322 320 317 315 316 314
219 216 213 212 210 213 219 219 217 222 222 214 211 213 213 215 220 225 230 237 245 254 252 242 243 257 266 253 250 283 305 312 327 334 332 330 335 346 346 346 353 350 344 347 350 352 355 5 17 16 12 9 3 356 354 354 358 2 5 5 3 0 356 350 345 341 338 334 331 328 327 326 326 326 325 324 323 322 321 319 319 317 317 317 315
220 219 217 216 213 214 219 221 219 222 221 216 213 215 213 211 216 222 227 236 243 250 249 242 244 255 260 250 250 275 292 294 310 325 325 324 326 335 341 339 338 338 337 338 343 346 348 352 0 4 7 9 4 359 353 348 344 338 334 336 335 336 336 333 330 328 325 325 325 324 323 321 320 319 318 318 320 321 319 318 319 319 318 317 315
221 222 220 219 219 216 217 220 221 222 222 220 221 219 212 207 209 214 220 231 241 248 248 243 243 251 257 255 256 269 276 279 295 312 319 321 323 331 337 332 326 327 328 328 332 340 344 344 347 354 360 2 0 356 351 345 340 333 328 327 327 327 326 325 326 327 328 330 331 329 326 323 320 318 317 318 319 318 316 316 317 317 317 316 315
222 224 221 221 224 221 220 222 224 227 225 224 227 224 217 211 209 212 215 222 237 249 249 245 247 252 258 263 265 267 270 275 289 306 319 326 327 331 333 327 323 325 326 325 327 333 338 333 331 339 345 348 352 353 351 348 343 338 331 327 326 324 323 324 326 330 333 335 335 334 333 331 327 322 320 317 311 306 307 310 312 314 315 316 315
225 227 225 224 226 225 224 225 225 229 230 229 228 228 226 222 219 218 214 213 227 243 251 253 254 255 258 264 266 265 267 275 286 304 323 334 337 334 330 326 324 326 329 333 335 337 340 335 329 333 337 338 342 345 344 341 338 337 335 333 332 330 329 331 333 336 338 339 340 338 335 332 328 323 319 313 308 307 308 309 311 313 314 315 315
229 232 231 227 227 226 226 227 226 228 232 233 232 232 233 234 233 229 220 217 226 236 249 260 263 264 261 260 259 258 261 266 278 301 317 330 340 339 331 328 328 330 335 344 351 347 342 341 334 330 329 328 331 336 337 337 337 338 339 340 340 339 339 340 341 342 342 340 338 333 327 324 322 320 317 314 312 311 310 310 311 313 315 316 317
234 235 233 230 229 228 227 229 229 228 230 232 234 237 239 242 243 240 233 232 239 243 250 257 263 267 264 258 250 244 249 257 269 290 302 309 326 334 332 330 331 336 340 345 356 355 345 345 347 338 330 326 330 336 337 337 339 341 342 343 342 340 340 341 341 341 338 334 331 327 321 318 319 319 317 314 311 309 309 310 311 313 315 318 320
235 235 233 231 231 231 230 230 232 232 230 230 234 239 242 246 248 247 244 245 252 257 259 261 260 262 263 259 247 237 241 249 260 275 286 293 303 313 320 324 327 336 339 336 342 354 354 350 351 346 339 336 337 340 341 340 341 344 345 344 340 337 337 337 335 335 334 330 328 323 319 319 319 319 315 311 309 309 309 310 311 314 317 321 324
236 236 234 232 231 232 231 230 233 234 233 232 234 238 244 248 251 252 250 249 254 258 262 266 266 266 267 262 253 245 245 250 257 267 276 284 293 300 306 312 318 326 332 327 328 340 351 346 347 344 340 342 343 343 345 344 344 349 349 344 338 334 332 334 333 333 332 329 325 321 318 316 315 313 313 313 314 313 313 313 315 319 323 326 327
236 236 234 232 232 231 229 230 232 233 234 235 236 239 244 248 252 254 253 252 253 253 257 263 266 269 270 267 264 260 258 259 261 266 273 279 287 294 300 305 311 316 322 320 317 322 332 333 336 340 335 339 346 344 344 346 347 351 351 345 339 333 332 334 332 329 326 322 319 316 313 311 311 314 317 319 320 320 319 321 324 328 330 330 329
237 236 234 233 233 231 229 229 231 233 235 236 239 243 246 249 252 254 256 256 255 254 255 259 261 265 268 268 269 272 273 272 270 271 273 276 281 288 295 299 304 308 313 314 309 311 322 328 326 329 330 333 341 340 339 343 346 350 350 346 342 337 333 330 325 323 321 319 320 320 316 316 320 324 327 327 326 326 327 330 332 332 331 330 331
237 236 235 233 233 233 230 229 229 232 233 236 241 246 250 252 254 255 257 257 258 258 257 258 260 263 268 269 270 273 277 279 279 278 276 277 280 284 289 293 297 302 306 307 305 307 316 327 323 322 323 325 332 337 338 339 343 345 346 346 345 340 332 325 325 328 328 328 331 327 324 328 333 335 335 333 331 331 333 333 332 331 331 333 335
238 237 236 235 235 234 231 228 227 228 231 235 240 245 250 254 256 257 258 259 261 263 264 264 266 268 271 273 274 276 277 279 281 281 280 279 280 283 287 290 293 296 300 301 301 304 310 318 321 320 321 321 326 334 337 339 341 342 343 345 346 341 332 328 334 339 337 337 335 329 329 335 337 337 337 335 334 334 334 333 332 334 335 337 338
240 240 238 237 236 235 232 228 226 226 230 235 239 244 250 255 258 260 259 260 261 263 266 268 271 273 274 276 279 281 279 278 279 280 283 283 283 284 287 289 292 294 296 297 298 301 305 310 315 318 319 320 322 329 334 338 340 340 340 343 345 345 336 331 340 346 340 336 331 327 331 335 334 335 335 334 335 335 335 334 335 336 338 340 343
241 241 241 240 238 237 235 231 229 230 234 237 240 245 250 255 259 261 261 261 261 262 264 267 269 271 273 275 278 281 280 278 276 277 282 285 286 287 288 291 293 294 294 295 296 299 301 305 310 313 316 318 319 325 329 332 335 336 337 341 345 348 342 334 339 344 338 331 326 325 330 332 330 333 335 335 337 338 338 338 337 338 342 345 348
241 241 242 242 242 240 239 237 237 238 241 243 246 249 253 258 262 265 266 265 264 263 263 264 265 267 270 272 274 276 276 276 276 275 277 280 282 284 287 289 290 290 290 291 294 296 296 300 304 308 312 314 314 320 326 328 330 332 333 339 347 351 350 339 335 338 336 328 325 326 329 330 331 335 338 339 341 342 341 340 340 343 347 350 351
243 244 243 244 244 244 243 243 245 246 248 250 251 253 257 261 266 270 271 270 269 268 266 265 264 265 266 268 269 270 270 271 272 272 272 274 275 277 281 283 282 282 282 285 289 292 293 296 299 302 306 309 309 313 322 328 332 332 329 333 345 350 350 342 331 333 335 330 328 329 330 332 336 340 342 343 344 345 344 342 344 347 350 351 351
245 246 246 246 246 247 248 249 250 252 253 255 256 257 259 261 265 269 271 273 273 273 272 270 267 265 265 266 266 265 266 267 267 267 267 267 269 271 274 277 277 277 278 280 283 286 289 291 293 296 299 301 304 308 315 325 332 332 327 327 335 342 344 342 332 329 332 332 331 330 329 332 337 341 344 346 346 346 346 346 347 349 350 351 350
247 247 248 249 249 249 251 252 253 255 256 258 258 258 259 260 262 265 267 270 272 273 274 274 272 269 266 265 265 264 264 265 265 264 263 263 265 268 271 274 276 277 278 279 281 282 285 287 289 291 292 292 297 302 308 319 328 330 328 327 330 333 335 339 336 329 328 329 330 328 326 328 334 339 343 344 345 346 347 347 348 349 349 350 349
249 249 249 250 251 252 253 254 255 257 258 259 259 260 260 260 261 263 264 266 267 269 271 273 274 273 269 266 264 264 264 263 263 262 260 259 261 265 268 272 274 278 280 281 281 282 282 283 284 286 286 286 290 295 302 315 327 330 329 328 327 325 325 329 333 331 326 325 327 327 323 324 330 336 339 341 342 344 346 346 346 347 349 349 347
250 251 251 251 252 253 254 255 256 257 258 259 259 260 260 261 262 263 263 263 264 265 267 269 272 272 271 267 263 263 264 262 261 260 259 258 259 261 265 267 270 275 278 280 282 283 282 281 281 281 281 280 283 289 298 312 323 325 326 326 325 321 319 320 324 328 327 325 325 324 321 322 327 331 335 337 339 341 344 344 344 346 347 347 344
251 252 252 253 253 254 255 256 257 259 259 260 260 260 260 261 262 263 263 263 263 263 264 266 269 271 272 268 263 261 261 260 259 259 259 259 259 260 262 263 266 270 273 277 281 283 281 278 276 275 276 278 281 286 296 310 318 318 321 324 324 321 317 315 318 323 325 323 322 320 318 319 323 326 329 334 336 339 341 342 342 343 343 343 341
253 253 253 253 254 254 255 256 257 258 259 260 260 261 261 261 262 263 264 264 264 264 265 265 267 270 270 268 264 259 257 257 258 257 258 259 260 260 261 261 262 263 266 271 276 279 279 276 273 271 273 278 282 286 297 308 310 310 314 319 320 318 313 309 310 313 317 317 315 315 314 314 318 321 326 331 334 337 339 340 340 340 339 339 338
256 255 255 255 255 255 255 256 256 257 258 259 259 260 260 261 262 263 265 265 265 265 265 266 267 267 267 266 263 258 255 255 255 256 256 256 258 259 259 260 259 259 262 266 269 273 274 273 273 273 274 279 281 284 294 302 301 302 306 308 309 309 306 303 302 305 309 311 310 310 310 311 314 318 324 329 333 335 337 337 337 336 336 336 336
257 257 257 257 257 257 257 257 258 257 257 257 257 258 258 259 260 262 264 265 265 266 265 265 265 265 264 262 260 257 253 252 253 254 254 254 255 255 256 256 256 256 259 261 262 265 267 268 271 273 275 278 280 281 287 290 292 295 299 299 299 300 300 299 297 298 302 305 306 307 307 308 311 316 322 328 331 332 334 334 333 333 333 333 334
257 258 258 259 259 259 259 259 260 260 258 256 256 256 256 257 258 260 263 264 264 264 263 263 263 262 260 259 258 255 253 251 250 251 252 253 253 254 254 253 253 254 254 255 256 258 260 261 265 268 271 273 274 276 278 280 284 289 293 294 294 295 297 298 295 294 295 297 300 302 305 306 309 313 319 324 328 330 331 329 329 329 330 330 332
258 259 259 259 260 260 260 261 262 262 260 257 256 255 255 255 256 258 260 261 261 262 261 260 260 259 257 257 256 254 252 250 248 248 249 252 253 254 254 253 253 253 252 252 254 255 256 258 260 263 266 268 269 270 272 275 278 282 287 289 289 292 296 296 295 293 291 292 294 297 301 305 307 311 314 319 324 327 326 324 324 326 327 329 330
258 259 259 259 259 260 261 261 262 262 261 259 257 256 254 254 255 256 257 257 258 259 258 258 258 257 256 255 254 254 251 248 246 246 248 253 255 255 255 254 254 254 251 250 252 253 255 258 261 263 265 267 268 269 271 275 277 279 281 282 284 289 293 293 295 295 290 288 290 293 297 300 303 305 308 313 319 322 321 318 319 323 326 327 328
259 260 261 261 261 262 262 262 262 263 264 263 261 259 256 255 255 255 255 256 257 258 258 257 257 256 254 253 253 253 250 247 245 245 248 254 256 256 256 256 256 255 251 249 250 253 255 257 260 263 265 266 267 269 270 273 275 275 274 276 280 286 288 290 293 294 288 282 282 286 290 292 296 299 302 308 314 316 315 314 316 321 325 325 325
260 261 262 262 263 264 264 264 264 265 265 265 264 262 259 257 256 254 254 254 255 256 256 256 255 255 253 251 251 251 250 247 245 246 249 253 256 256 256 257 257 254 251 250 252 254 255 257 259 261 262 263 264 266 267 267 268 269 269 272 277 281 283 285 287 286 282 279 278 280 283 286 289 293 297 304 309 311 311 311 313 319 322 322 321